Time,TemperatureF,DewpointF,PressureIn,WindDirection,WindDirectionDegrees,WindSpeedMPH,WindSpeedGustMPH,Humidity,HourlyPrecipIn,Conditions,Clouds,dailyrainin,SoftwareType,DateUTC
2013-02-05 00:02:00,-999.0,-99.9,29.59,NNE,33,11.0,16.0,-999,-99.99,,,-99.99,,2013-02-05 09:02:00,
2013-02-05 00:12:00,20.0,-99.9,29.59,NE,42,14.0,17.0,-999,-99.99,,,-99.99,,2013-02-05 09:12:00,
2013-02-05 00:22:00,-999.0,-99.9,29.59,NE,38,9.0,13.0,-999,-99.99,,,-99.99,,2013-02-05 09:22:00,
2013-02-05 00:32:00,-999.0,-99.9,29.59,NE,34,5.0,7.0,-999,-99.99,,,-99.99,,2013-02-05 09:32:00,
2013-02-05 00:42:00,-999.0,-99.9,29.59,NNE,29,2.0,6.0,-999,-99.99,,,-99.99,,2013-02-05 09:42:00,
2013-02-05 00:52:00,-999.0,-99.9,29.59,North,7,7.0,9.0,-999,-99.99,,,-99.99,,2013-02-05 09:52:00,
2013-02-05 01:02:00,-999.0,-99.9,29.59,NE,42,9.0,12.0,-999,-99.99,,,-99.99,,2013-02-05 10:02:00,
2013-02-05 01:11:00,21.0,-99.9,29.59,NNE,31,11.0,13.0,-999,-99.99,,,-99.99,,2013-02-05 10:11:00,
2013-02-05 01:22:00,-999.0,-99.9,29.59,NE,51,9.0,11.0,-999,-99.99,,,-99.99,,2013-02-05 10:22:00,
2013-02-05 01:32:00,-999.0,-99.9,29.59,ENE,58,9.0,13.0,-999,-99.99,,,-99.99,,2013-02-05 10:32:00,
2013-02-05 01:42:00,21.0,-99.9,29.59,NE,48,11.0,12.0,-999,-99.99,,,-99.99,,2013-02-05 10:42:00,
2013-02-05 01:52:00,-999.0,-99.9,29.59,NE,54,15.0,17.0,-999,-99.99,,,-99.99,,2013-02-05 10:52:00,
2013-02-05 02:01:00,-999.0,-99.9,29.59,NE,53,16.0,19.0,-999,-99.99,,,-99.99,,2013-02-05 11:01:00,
2013-02-05 02:11:00,-999.0,-99.9,29.59,NE,45,15.0,17.0,-999,-99.99,,,-99.99,,2013-02-05 11:11:00,
2013-02-05 02:22:00,21.0,-99.9,29.59,NE,44,14.0,17.0,-999,-99.99,,,-99.99,,2013-02-05 11:22:00,
2013-02-05 02:32:00,-999.0,-99.9,29.59,NE,45,13.0,15.0,-999,-99.99,,,-99.99,,2013-02-05 11:32:00,
2013-02-05 02:42:00,20.0,-99.9,29.59,NE,43,18.0,22.0,-999,-99.99,,,-99.99,,2013-02-05 11:42:00,
2013-02-05 02:52:00,-999.0,-99.9,29.59,NE,41,19.0,24.0,-999,-99.99,,,-99.99,,2013-02-05 11:52:00,
2013-02-05 03:02:00,-999.0,-99.9,29.59,NE,43,19.0,23.0,-999,-99.99,,,-99.99,,2013-02-05 12:02:00,
2013-02-05 03:12:00,19.0,-99.9,29.59,NE,46,20.0,23.0,-999,-99.99,,,-99.99,,2013-02-05 12:12:00,
2013-02-05 03:22:00,-999.0,-99.9,29.59,NE,46,18.0,23.0,-999,-99.99,,,-99.99,,2013-02-05 12:22:00,
2013-02-05 03:32:00,-999.0,-99.9,29.59,NNE,13,9.0,16.0,-999,-99.99,,,-99.99,,2013-02-05 12:32:00,
2013-02-05 03:42:00,-999.0,-99.9,29.59,NE,37,7.0,13.0,-999,-99.99,,,-99.99,,2013-02-05 12:42:00,
2013-02-05 03:52:00,-999.0,-99.9,29.59,NE,36,8.0,10.0,-999,-99.99,,,-99.99,,2013-02-05 12:52:00,
2013-02-05 04:02:00,-999.0,-99.9,29.60,North,353,8.0,12.0,-999,-99.99,,,-99.99,,2013-02-05 13:02:00,
2013-02-05 04:12:00,19.0,-99.9,29.60,North,352,11.0,13.0,-999,-99.99,,,-99.99,,2013-02-05 13:12:00,
2013-02-05 04:22:00,-999.0,-99.9,29.60,North,2,9.0,15.0,-999,-99.99,,,-99.99,,2013-02-05 13:22:00,
2013-02-05 04:32:00,-999.0,-99.9,29.60,NNE,14,9.0,13.0,-999,-99.99,,,-99.99,,2013-02-05 13:32:00,
2013-02-05 04:42:00,19.0,-99.9,29.60,NNE,22,8.0,15.0,-999,-99.99,,,-99.99,,2013-02-05 13:42:00,
2013-02-05 04:52:00,-999.0,-99.9,29.60,NNE,15,13.0,19.0,-999,-99.99,,,-99.99,,2013-02-05 13:52:00,
2013-02-05 05:01:00,-999.0,-99.9,29.60,NNE,33,17.0,23.0,-999,-99.99,,,-99.99,,2013-02-05 14:01:00,
2013-02-05 05:12:00,-999.0,-99.9,29.59,NE,36,19.0,23.0,-999,-99.99,,,-99.99,,2013-02-05 14:12:00,
2013-02-05 05:22:00,-999.0,-99.9,29.59,NE,41,20.0,25.0,-999,-99.99,,,-99.99,,2013-02-05 14:22:00,
2013-02-05 05:32:00,-999.0,-99.9,29.59,NNE,31,18.0,24.0,-999,-99.99,,,-99.99,,2013-02-05 14:32:00,
2013-02-05 05:42:00,19.0,-99.9,29.59,NNE,30,18.0,22.0,-999,-99.99,,,-99.99,,2013-02-05 14:42:00,
2013-02-05 05:52:00,-999.0,-99.9,29.59,NNE,33,18.0,24.0,-999,-99.99,,,-99.99,,2013-02-05 14:52:00,
2013-02-05 06:02:00,-999.0,-99.9,29.59,NNE,23,11.0,20.0,-999,-99.99,,,-99.99,,2013-02-05 15:02:00,
2013-02-05 06:11:00,-999.0,-99.9,29.60,NNE,22,10.0,15.0,-999,-99.99,,,-99.99,,2013-02-05 15:11:00,
2013-02-05 06:22:00,19.0,-99.9,29.59,NNE,19,7.0,15.0,-999,-99.99,,,-99.99,,2013-02-05 15:22:00,
2013-02-05 06:32:00,-999.0,-99.9,29.59,NE,38,10.0,12.0,-999,-99.99,,,-99.99,,2013-02-05 15:32:00,
2013-02-05 06:42:00,-999.0,-99.9,29.59,NNE,30,12.0,15.0,-999,-99.99,,,-99.99,,2013-02-05 15:42:00,
2013-02-05 06:52:00,19.0,-99.9,29.59,NE,34,13.0,16.0,-999,-99.99,,,-99.99,,2013-02-05 15:52:00,
2013-02-05 07:01:00,-999.0,-99.9,29.59,NE,37,12.0,18.0,-999,-99.99,,,-99.99,,2013-02-05 16:01:00,
2013-02-05 07:12:00,19.0,-99.9,29.60,NE,44,12.0,16.0,-999,-99.99,,,-99.99,,2013-02-05 16:12:00,
2013-02-05 07:22:00,-999.0,-99.9,29.60,NE,45,12.0,16.0,-999,-99.99,,,-99.99,,2013-02-05 16:22:00,
2013-02-05 07:33:00,-999.0,-99.9,29.60,NE,35,10.0,14.0,-999,-99.99,,,-99.99,,2013-02-05 16:33:00,
2013-02-05 07:42:00,18.0,-99.9,29.60,NE,39,10.0,13.0,-999,-99.99,,,-99.99,,2013-02-05 16:42:00,
2013-02-05 07:52:00,-999.0,-99.9,29.60,NE,36,11.0,13.0,-999,-99.99,,,-99.99,,2013-02-05 16:52:00,
2013-02-05 08:01:00,-999.0,-99.9,29.60,NE,37,5.0,10.0,-999,-99.99,,,-99.99,,2013-02-05 17:01:00,
2013-02-05 08:12:00,20.0,-99.9,29.60,NNE,33,6.0,10.0,-999,-99.99,,,-99.99,,2013-02-05 17:12:00,
2013-02-05 08:22:00,-999.0,-99.9,29.60,NNE,19,7.0,8.0,-999,-99.99,,,-99.99,,2013-02-05 17:22:00,
2013-02-05 08:33:00,-999.0,-99.9,29.60,NNE,25,10.0,12.0,-999,-99.99,,,-99.99,,2013-02-05 17:33:00,
2013-02-05 08:42:00,19.0,-99.9,29.60,NNE,33,9.0,12.0,-999,-99.99,,,-99.99,,2013-02-05 17:42:00,
2013-02-05 08:52:00,-999.0,-99.9,29.60,NNE,26,10.0,13.0,-999,-99.99,,,-99.99,,2013-02-05 17:52:00,
2013-02-05 09:02:00,-999.0,-99.9,29.60,NE,39,6.0,8.0,-999,-99.99,,,-99.99,,2013-02-05 18:02:00,
2013-02-05 09:12:00,-999.0,-99.9,29.61,NE,54,9.0,10.0,-999,-99.99,,,-99.99,,2013-02-05 18:12:00,
2013-02-05 09:22:00,-999.0,-99.9,29.61,NE,54,7.0,9.0,-999,-99.99,,,-99.99,,2013-02-05 18:22:00,
2013-02-05 09:32:00,-999.0,-99.9,29.61,NE,45,7.0,11.0,-999,-99.99,,,-99.99,,2013-02-05 18:32:00,
2013-02-05 09:42:00,20.0,-99.9,29.61,NNE,32,9.0,12.0,-999,-99.99,,,-99.99,,2013-02-05 18:42:00,
2013-02-05 09:52:00,-999.0,-99.9,29.61,NE,35,11.0,13.0,-999,-99.99,,,-99.99,,2013-02-05 18:52:00,
2013-02-05 10:02:00,-999.0,-99.9,29.61,NE,41,10.0,14.0,-999,-99.99,,,-99.99,,2013-02-05 19:02:00,
2013-02-05 10:11:00,18.0,-99.9,29.62,NE,40,9.0,12.0,-999,-99.99,,,-99.99,,2013-02-05 19:11:00,
2013-02-05 10:22:00,-999.0,-99.9,29.62,NE,34,11.0,14.0,-999,-99.99,,,-99.99,,2013-02-05 19:22:00,
2013-02-05 10:32:00,-999.0,-99.9,29.62,NNE,31,12.0,17.0,-999,-99.99,,,-99.99,,2013-02-05 19:32:00,
2013-02-05 10:42:00,18.0,-99.9,29.62,NNE,29,10.0,15.0,-999,-99.99,,,-99.99,,2013-02-05 19:42:00,
2013-02-05 10:52:00,-999.0,-99.9,29.62,NE,36,13.0,16.0,-999,-99.99,,,-99.99,,2013-02-05 19:52:00,
2013-02-05 11:02:00,-999.0,-99.9,29.62,NNE,31,12.0,15.0,-999,-99.99,,,-99.99,,2013-02-05 20:02:00,
2013-02-05 11:11:00,18.0,-99.9,29.62,NNE,27,11.0,15.0,-999,-99.99,,,-99.99,,2013-02-05 20:11:00,
2013-02-05 11:22:00,-999.0,-99.9,29.62,NNE,31,11.0,13.0,-999,-99.99,,,-99.99,,2013-02-05 20:22:00,
2013-02-05 11:32:00,-999.0,-99.9,29.62,NNE,23,10.0,17.0,-999,-99.99,,,-99.99,,2013-02-05 20:32:00,
2013-02-05 11:42:00,19.0,-99.9,29.62,NNE,27,13.0,16.0,-999,-99.99,,,-99.99,,2013-02-05 20:42:00,
2013-02-05 11:52:00,-999.0,-99.9,29.62,NNE,14,10.0,13.0,-999,-99.99,,,-99.99,,2013-02-05 20:52:00,
2013-02-05 12:02:00,-999.0,-99.9,29.63,NNE,14,11.0,16.0,-999,-99.99,,,-99.99,,2013-02-05 21:02:00,
2013-02-05 12:11:00,19.0,-99.9,29.63,NNE,21,10.0,16.0,-999,-99.99,,,-99.99,,2013-02-05 21:11:00,
2013-02-05 12:22:00,-999.0,-99.9,29.63,NNE,21,11.0,15.0,-999,-99.99,,,-99.99,,2013-02-05 21:22:00,
2013-02-05 12:32:00,-999.0,-99.9,29.64,NE,34,12.0,13.0,-999,-99.99,,,-99.99,,2013-02-05 21:32:00,
2013-02-05 12:42:00,19.0,-99.9,29.64,NNE,33,9.0,13.0,-999,-99.99,,,-99.99,,2013-02-05 21:42:00,
2013-02-05 12:52:00,-999.0,-99.9,29.64,NNE,30,8.0,11.0,-999,-99.99,,,-99.99,,2013-02-05 21:52:00,
2013-02-05 13:02:00,-999.0,-99.9,29.64,NE,41,8.0,10.0,-999,-99.99,,,-99.99,,2013-02-05 22:02:00,
2013-02-05 13:12:00,-999.0,-99.9,29.64,NNE,24,7.0,11.0,-999,-99.99,,,-99.99,,2013-02-05 22:12:00,
2013-02-05 13:22:00,-999.0,-99.9,29.65,NE,35,8.0,13.0,-999,-99.99,,,-99.99,,2013-02-05 22:22:00,
2013-02-05 13:32:00,-999.0,-99.9,29.65,NE,36,11.0,12.0,-999,-99.99,,,-99.99,,2013-02-05 22:32:00,
2013-02-05 13:42:00,19.0,-99.9,29.65,NNE,15,6.0,11.0,-999,-99.99,,,-99.99,,2013-02-05 22:42:00,
2013-02-05 13:52:00,-999.0,-99.9,29.65,NNE,26,7.0,10.0,-999,-99.99,,,-99.99,,2013-02-05 22:52:00,
2013-02-05 14:02:00,-999.0,-99.9,29.65,North,6,7.0,10.0,-999,-99.99,,,-99.99,,2013-02-05 23:02:00,
2013-02-05 14:11:00,19.0,-99.9,29.65,North,10,8.0,10.0,-999,-99.99,,,-99.99,,2013-02-05 23:11:00,
2013-02-05 14:22:00,-999.0,-99.9,29.65,NNE,17,11.0,14.0,-999,-99.99,,,-99.99,,2013-02-05 23:22:00,
2013-02-05 14:33:00,-999.0,-99.9,29.65,North,360,8.0,11.0,-999,-99.99,,,-99.99,,2013-02-05 23:33:00,
2013-02-05 14:42:00,-999.0,-99.9,29.65,North,4,9.0,14.0,-999,-99.99,,,-99.99,,2013-02-05 23:42:00,
2013-02-05 14:53:00,18.0,-99.9,29.65,North,3,10.0,13.0,-999,-99.99,,,-99.99,,2013-02-05 23:53:00,
2013-02-05 15:02:00,-999.0,-99.9,29.65,North,4,9.0,11.0,-999,-99.99,,,-99.99,,2013-02-06 00:02:00,
2013-02-05 15:12:00,19.0,-99.9,29.65,NNE,12,8.0,11.0,-999,-99.99,,,-99.99,,2013-02-06 00:12:00,
2013-02-05 15:22:00,-999.0,-99.9,29.65,NNE,14,6.0,11.0,-999,-99.99,,,-99.99,,2013-02-06 00:22:00,
2013-02-05 15:32:00,-999.0,-99.9,29.65,NNE,19,7.0,10.0,-999,-99.99,,,-99.99,,2013-02-06 00:32:00,
2013-02-05 15:42:00,19.0,-99.9,29.65,NE,36,9.0,11.0,-999,-99.99,,,-99.99,,2013-02-06 00:42:00,
2013-02-05 15:52:00,-999.0,-99.9,29.65,NNE,29,10.0,13.0,-999,-99.99,,,-99.99,,2013-02-06 00:52:00,
2013-02-05 16:02:00,-999.0,-99.9,29.65,NNE,30,12.0,15.0,-999,-99.99,,,-99.99,,2013-02-06 01:02:00,
2013-02-05 16:12:00,-999.0,-99.9,29.65,NNE,23,8.0,11.0,-999,-99.99,,,-99.99,,2013-02-06 01:12:00,
2013-02-05 16:22:00,18.0,-99.9,29.65,NNE,13,5.0,8.0,-999,-99.99,,,-99.99,,2013-02-06 01:22:00,
2013-02-05 16:33:00,-999.0,-99.9,29.65,NNE,23,8.0,12.0,-999,-99.99,,,-99.99,,2013-02-06 01:33:00,
2013-02-05 16:42:00,17.0,-99.9,29.65,NNE,29,9.0,12.0,-999,-99.99,,,-99.99,,2013-02-06 01:42:00,
2013-02-05 16:53:00,-999.0,-99.9,29.65,NE,35,10.0,15.0,-999,-99.99,,,-99.99,,2013-02-06 01:53:00,
2013-02-05 17:02:00,-999.0,-99.9,29.66,NE,41,9.0,13.0,-999,-99.99,,,-99.99,,2013-02-06 02:02:00,
2013-02-05 17:12:00,16.0,-99.9,29.66,NNE,33,9.0,12.0,-999,-99.99,,,-99.99,,2013-02-06 02:12:00,
2013-02-05 17:22:00,-999.0,-99.9,29.66,NE,43,9.0,12.0,-999,-99.99,,,-99.99,,2013-02-06 02:22:00,
2013-02-05 17:32:00,-999.0,-99.9,29.66,NE,37,9.0,10.0,-999,-99.99,,,-99.99,,2013-02-06 02:32:00,
2013-02-05 17:42:00,-999.0,-99.9,29.67,NNE,14,9.0,14.0,-999,-99.99,,,-99.99,,2013-02-06 02:42:00,
2013-02-05 17:53:00,-999.0,-99.9,29.67,North,8,8.0,11.0,-999,-99.99,,,-99.99,,2013-02-06 02:53:00,
2013-02-05 18:03:00,-999.0,-99.9,29.67,NNE,24,5.0,11.0,-999,-99.99,,,-99.99,,2013-02-06 03:03:00,
2013-02-05 18:12:00,15.0,-99.9,29.67,NNE,27,10.0,13.0,-999,-99.99,,,-99.99,,2013-02-06 03:12:00,
2013-02-05 18:22:00,-999.0,-99.9,29.67,North,2,4.0,7.0,-999,-99.99,,,-99.99,,2013-02-06 03:22:00,
2013-02-05 18:33:00,-999.0,-99.9,29.67,NNE,30,6.0,7.0,-999,-99.99,,,-99.99,,2013-02-06 03:33:00,
2013-02-05 18:43:00,15.0,-99.9,29.67,NNE,16,6.0,7.0,-999,-99.99,,,-99.99,,2013-02-06 03:43:00,
2013-02-05 18:53:00,-999.0,-99.9,29.68,NNE,12,4.0,10.0,-999,-99.99,,,-99.99,,2013-02-06 03:53:00,
2013-02-05 19:02:00,-999.0,-99.9,29.68,North,-999,3.0,6.0,-999,-99.99,,,-99.99,,2013-02-06 04:02:00,
2013-02-05 19:12:00,-999.0,-99.9,29.68,NNE,21,2.0,2.0,-999,-99.99,,,-99.99,,2013-02-06 04:12:00,
2013-02-05 19:22:00,-999.0,-99.9,29.68,East,99,1.0,3.0,-999,-99.99,,,-99.99,,2013-02-06 04:22:00,
2013-02-05 19:32:00,-999.0,-99.9,29.69,North,2,2.0,5.0,-999,-99.99,,,-99.99,,2013-02-06 04:32:00,
2013-02-05 19:42:00,14.0,-99.9,29.69,NNE,27,4.0,6.0,-999,-99.99,,,-99.99,,2013-02-06 04:42:00,
2013-02-05 19:52:00,-999.0,-99.9,29.69,North,358,2.0,3.0,-999,-99.99,,,-99.99,,2013-02-06 04:52:00,
2013-02-05 20:02:00,-999.0,-99.9,29.69,WNW,302,2.0,4.0,-999,-99.99,,,-99.99,,2013-02-06 05:02:00,
2013-02-05 20:12:00,12.0,-99.9,29.70,NNW,331,2.0,3.0,-999,-99.99,,,-99.99,,2013-02-06 05:12:00,
2013-02-05 20:22:00,-999.0,-99.9,29.70,NNW,336,7.0,8.0,-999,-99.99,,,-99.99,,2013-02-06 05:22:00,
2013-02-05 20:32:00,-999.0,-99.9,29.70,NNE,22,5.0,6.0,-999,-99.99,,,-99.99,,2013-02-06 05:32:00,
2013-02-05 20:42:00,-999.0,-99.9,29.70,NNW,346,4.0,5.0,-999,-99.99,,,-99.99,,2013-02-06 05:42:00,
2013-02-05 20:53:00,-999.0,-99.9,29.70,North,3,4.0,5.0,-999,-99.99,,,-99.99,,2013-02-06 05:53:00,
2013-02-05 21:01:00,-999.0,-99.9,29.71,North,356,4.0,5.0,-999,-99.99,,,-99.99,,2013-02-06 06:01:00,
2013-02-05 21:11:00,8.0,-99.9,29.71,NNW,348,4.0,6.0,-999,-99.99,,,-99.99,,2013-02-06 06:11:00,
2013-02-05 21:22:00,-999.0,-99.9,29.71,North,4,6.0,8.0,-999,-99.99,,,-99.99,,2013-02-06 06:22:00,
2013-02-05 21:32:00,-999.0,-99.9,29.71,NNE,29,5.0,7.0,-999,-99.99,,,-99.99,,2013-02-06 06:32:00,
2013-02-05 21:42:00,8.0,-99.9,29.71,NE,52,2.0,6.0,-999,-99.99,,,-99.99,,2013-02-06 06:42:00,
2013-02-05 21:52:00,-999.0,-99.9,29.72,SE,144,1.0,3.0,-999,-99.99,,,-99.99,,2013-02-06 06:52:00,
2013-02-05 22:02:00,-999.0,-99.9,29.72,ENE,66,3.0,4.0,-999,-99.99,,,-99.99,,2013-02-06 07:02:00,
2013-02-05 22:11:00,-999.0,-99.9,29.72,NNW,347,5.0,6.0,-999,-99.99,,,-99.99,,2013-02-06 07:11:00,
2013-02-05 22:22:00,-999.0,-99.9,29.72,NNW,343,6.0,7.0,-999,-99.99,,,-99.99,,2013-02-06 07:22:00,
2013-02-05 22:32:00,-999.0,-99.9,29.72,North,-999,5.0,6.0,-999,-99.99,,,-99.99,,2013-02-06 07:32:00,
2013-02-05 22:42:00,8.0,-99.9,29.72,North,358,4.0,6.0,-999,-99.99,,,-99.99,,2013-02-06 07:42:00,
2013-02-05 22:52:00,-999.0,-99.9,29.73,East,93,1.0,2.0,-999,-99.99,,,-99.99,,2013-02-06 07:52:00,
2013-02-05 23:01:00,-999.0,-99.9,29.74,East,80,1.0,2.0,-999,-99.99,,,-99.99,,2013-02-06 08:01:00,
2013-02-05 23:11:00,7.0,-99.9,29.74,NE,36,3.0,4.0,-999,-99.99,,,-99.99,,2013-02-06 08:11:00,
2013-02-05 23:21:00,-999.0,-99.9,29.74,North,2,3.0,5.0,-999,-99.99,,,-99.99,,2013-02-06 08:21:00,
2013-02-05 23:32:00,-999.0,-99.9,29.74,NE,39,3.0,4.0,-999,-99.99,,,-99.99,,2013-02-06 08:32:00,
2013-02-05 23:42:00,-999.0,-99.9,29.74,NE,45,3.0,5.0,-999,-99.99,,,-99.99,,2013-02-06 08:42:00,
2013-02-05 23:53:00,-999.0,-99.9,29.74,NE,56,3.0,4.0,-999,-99.99,,,-99.99,,2013-02-06 08:53:00,